map of RAO home
RAO - Airport
Location
City:  Riberão Preto, São Paulo, Brazil
Name:Leite Lopes
ICAO:SBRP
IATA:RAO

Details
Type:Airport (Aerodrome, Airfield)
Use:Public/Civil
Latitude:21°08'03"S (-21.134166)
Longitude:47°46'27"W (-47.774188)
Datum:WGS 1984
Elevation:1802 ft (549 m)
Variation:21.15°W (WMM2015 magnetic declination)
-0.12° annual change
Runways:1
Longest:6890 × 115 ft (2100 × 35 m), paved

Time
Time Zone:UTC-3 (DST-2)
Local Time:

Weather
METAR:SBRP 250000Z 12003KT CAVOK 19/13 Q1024
TAF:SBRP 241600Z 2418/2518 10005KT CAVOK TN13/2509Z TX27/2517Z
BECMG 2421/2423 12005KT
BECMG 2502/2504 00000KT
BECMG 2513/2515 07010KT
RMK PHG

Related Locations
Nearby:
Farthest:MMD: 12100 mi / 19474 km
Minamidaito [Minami Daito Airport], Minamidaito Jima, 47, JP

Find:

   beyond  
but within

Other Information
Maps:
NOTAMs:
Links:
Sources:

  
flag of Brazil
flag of São Paulo
  

Sectional Chart

Flight Planning
at skyvector.com

Satellite Image

Google Maps Satellite view

 

Copyright © 2004-2017 Karl L. Swartz. All rights reserved.
The Great Circle Mapper name and logo are trademarks of the Great Circle Mapper.
All other trademarks mentioned herein belong to their respective owners.
Please see credits for attibutions and further copyright information.

  Follow gcmap on Facebook Follow gcmap on Twitter Follow gcmap on Google+ GCmap on LinkedIn

hCard Microformat

Geo Microformat